GW1174 Weather Reports


time (UTC)temp
C
wind
direction
speed
KPH
gust
KPH
rain 1hr
cm
rain 24hr
cm
rain mn
cm
humidity
%
barometer
mb
20260905194037 21 152 9.7 11.3 0.00 0.51 0.51 45 1078.8
20260905193017 20 156 9.7 11.3 0.00 0.51 0.51 46 1079.6
20260905192017 20 159 9.7 11.3 0.00 0.51 0.51 47 1080.3
20260905191017 15 0.0 0.0 0.00 0.23 0.23 68 1023.0
20260905190037 20 167 8.0 9.7 0.00 0.51 0.51 48 1081.9
20260905185037 15 0.0 0.0 0.00 0.23 0.23 67 1022.9
20260905184019 15 0.0 0.0 0.00 0.23 0.23 67 1022.8
20260905184017 20 175 8.0 9.7 0.00 0.51 0.51 49 1083.4
20260905183017 19 179 8.0 9.7 0.00 0.51 0.51 50 1084.2
20260905182016 19 183 8.0 9.7 0.00 0.51 0.51 51 1085.0
20260905181017 16 0.0 4.8 0.00 0.23 0.23 64 1022.2
20260905180017 18 191 8.0 9.7 0.00 0.51 0.51 52 1086.5
20260905175017 18 195 8.0 9.7 0.00 0.51 0.51 52 1087.3
20260905174017 18 199 6.4 8.0 0.00 0.51 0.51 53 1088.1
20260905173037 17 203 6.4 8.0 0.00 0.51 0.51 54 1088.9
20260905172017 17 206 6.4 8.0 0.00 0.51 0.51 54 1089.6
20260905171017 17 210 6.4 8.0 0.00 0.51 0.51 55 1090.4
20260905170016 19 315 8.0 19.3 0.00 0.23 0.23 55 1021.7
20260905165017 16 218 6.4 8.0 0.00 0.51 0.51 56 1091.9
20260905164037 16 222 6.4 8.0 0.00 0.51 0.51 57 1092.7
20260905163017 15 226 6.4 8.0 0.00 0.51 0.51 58 1093.4
20260905162037 15 229 6.4 6.4 0.00 0.51 0.51 58 1094.2
20260905161017 15 233 6.4 6.4 0.00 0.51 0.51 59 1094.9
20260905160017 14 237 4.8 6.4 0.00 0.51 0.51 59 1095.7
20260905155017 13 241 4.8 6.4 0.00 0.51 0.51 60 1096.4
20260905154017 13 244 4.8 6.4 0.00 0.51 0.51 61 1097.1
20260905153016 12 248 4.8 6.4 0.00 0.51 0.51 61 1097.8
20260905152058 12 252 4.8 6.4 0.00 0.51 0.51 62 1098.6
20260905152037 21 315 11.3 29.0 0.00 0.23 0.23 53 1020.6
20260905151017 12 255 4.8 6.4 0.00 0.51 0.51 63 1099.3
20260905150017 11 259 4.8 4.8 0.00 0.51 0.51 63 1100.0
20260905145037 11 262 4.8 4.8 0.00 0.51 0.51 64 1100.7
20260905144037 10 266 4.8 4.8 0.00 0.51 0.51 64 1101.4
20260905143037 10 269 4.8 4.8 0.00 0.51 0.51 65 1102.0
20260905142017 9 273 3.2 4.8 0.00 0.51 0.51 65 1102.7
20260905141016 8 276 3.2 4.8 0.00 0.51 0.51 66 1103.4
20260905140037 8 279 3.2 4.8 0.00 0.51 0.51 67 1104.0
20260905140016 22 270 16.1 32.2 0.00 0.23 0.23 49 1020.5
20260905135017 8 282 3.2 4.8 0.00 0.51 0.51 67 1104.7
20260905134017 7 286 3.2 4.8 0.00 0.51 0.51 68 1105.3
20260905133037 7 289 3.2 3.2 0.00 0.51 0.51 68 1105.9
20260905132037 6 292 3.2 3.2 0.00 0.51 0.51 69 1106.5
20260905131016 22 270 9.7 19.3 0.00 0.23 0.23 55 1020.4
20260905130017 6 298 3.2 3.2 0.00 0.51 0.51 70 1107.7
20260905125017 5 301 3.2 3.2 0.00 0.51 0.51 70 1108.3
20260905124017 5 304 3.2 3.2 0.00 0.51 0.51 71 1108.9
20260905123017 4 307 1.6 3.2 0.00 0.51 0.51 71 1109.4
20260905123015 20 315 6.4 14.5 0.00 0.23 0.23 66 1020.4
20260905122038 20 293 9.7 17.7 0.00 0.23 0.23 67 1020.4
20260905121037 19 315 6.4 16.1 0.00 0.23 0.23 68 1020.4
20260905120038 19 315 8.0 17.7 0.00 0.23 0.23 67 1020.6
20260905115017 19 293 4.8 17.7 0.00 0.23 0.23 66 1020.5
20260905114017 2 320 1.6 1.6 0.00 0.51 0.51 73 1112.0
20260905113017 20 293 6.4 17.7 0.00 0.23 0.23 67 1020.7
20260905112039 19 293 8.0 17.7 0.00 0.23 0.23 66 1020.7
20260905111018 19 270 11.3 24.1 0.00 0.23 0.23 65 1020.9
20260905110037 1 329 1.6 1.6 0.00 0.51 0.51 75 1113.9
20260905105039 19 248 11.3 17.7 0.00 0.23 0.23 68 1020.8
20260905105017 1 331 1.6 1.6 0.00 0.51 0.51 75 1114.3
20260905104017 19 270 11.3 22.5 0.00 0.23 0.23 69 1021.0
20260905103018 18 270 9.7 19.3 0.00 0.23 0.23 72 1020.9
20260905102017 18 293 8.0 19.3 0.00 0.23 0.23 76 1021.1
20260905101037 0 339 1.6 1.6 0.00 0.51 0.51 77 1115.9
20260905100017 0 341 1.6 1.6 0.00 0.51 0.51 77 1116.2
20260905095017 18 293 8.0 17.7 0.00 0.23 0.23 74 1021.2
20260905094017 0 344 0.0 1.6 0.00 0.51 0.51 77 1116.9
20260905093017 0 346 0.0 0.0 0.00 0.51 0.51 78 1117.2
20260905092037 0 347 0.0 0.0 0.00 0.51 0.51 78 1117.5
20260905092017 17 270 8.0 16.1 0.00 0.23 0.23 78 1021.1
20260905091017 17 225 8.0 12.9 0.00 0.23 0.23 78 1021.2
20260905090037 17 248 11.3 19.3 0.00 0.23 0.23 78 1021.2
20260905085017 -1 351 0.0 0.0 0.00 0.51 0.51 79 1118.3
20260905084017 17 225 8.0 14.5 0.00 0.23 0.23 82 1021.0
20260905083017 -1 354 0.0 0.0 0.00 0.51 0.51 79 1118.7
20260905082017 -1 355 0.0 0.0 0.00 0.51 0.51 79 1118.9
20260905081017 16 270 8.0 12.9 0.00 0.23 0.23 88 1020.9
20260905080017 -1 356 0.0 0.0 0.00 0.51 0.51 79 1119.3
20260905075037 15 248 11.3 19.3 0.00 0.23 0.23 90 1020.6
20260905074017 15 225 4.8 11.3 0.00 0.23 0.23 91 1020.5
20260905073021 15 270 4.8 14.5 0.00 0.23 0.23 92 1020.2
20260905073017 0 358 0.0 0.0 0.00 0.51 0.51 80 1119.7
20260905072017 15 293 1.6 3.2 0.00 0.23 0.23 92 1020.2
20260905071017 14 203 4.8 8.0 0.00 0.23 0.23 92 1020.1
20260905070037 14 225 3.2 6.4 0.00 0.23 0.23 92 1020.0
20260905065017 14 203 3.2 6.4 0.00 0.23 0.23 92 1019.9
20260905064017 0 360 0.0 0.0 0.00 0.51 0.51 80 1120.0
20260905063017 13 158 4.8 9.7 0.00 0.23 0.23 92 1019.7
20260905062017 13 158 3.2 6.4 0.00 0.23 0.23 92 1019.6
20260905061017 13 158 3.2 6.4 0.00 0.23 0.23 92 1019.6
20260905060017 1 360 0.0 0.0 0.00 0.51 0.51 80 1119.9
20260905055017 12 0.0 0.0 0.00 0.23 0.23 91 1019.4
20260905054017 1 359 0.0 0.0 0.00 0.51 0.51 80 1119.8
20260905053017 12 0.0 1.6 0.00 0.23 0.23 91 1019.4
20260905052017 2 358 0.0 0.0 0.00 0.51 0.51 80 1119.6
20260905051017 2 357 0.0 0.0 0.00 0.51 0.51 80 1119.5
20260905050017 3 357 0.0 0.0 0.00 0.51 0.51 79 1119.3
20260905045017 12 0.0 0.0 0.00 0.23 0.23 90 1019.0
20260905044017 12 0.0 0.0 0.00 0.23 0.23 90 1018.8
20260905043037 4 354 0.0 0.0 0.00 0.51 0.51 79 1118.8
20260905043018 12 0.0 1.6 0.00 0.23 0.23 90 1018.6
20260905042037 5 353 0.0 0.0 0.00 0.51 0.51 79 1118.6
20260905041017 5 352 0.0 0.0 0.00 0.51 0.51 79 1118.4
20260905040017 5 351 0.0 0.0 0.00 0.51 0.51 78 1118.2
20260905035057 12 0.0 1.6 0.00 0.23 0.23 88 1018.6
20260905034017 12 0.0 1.6 0.03 0.23 0.23 88 1018.1
20260905033017 7 347 0.0 0.0 0.00 0.51 0.51 78 1117.4
20260905032017 7 345 0.0 1.6 0.00 0.51 0.51 78 1117.0
20260905031017 7 344 0.0 1.6 0.00 0.51 0.51 77 1116.7
20260905030017 8 342 1.6 1.6 0.00 0.51 0.51 77 1116.4
20260905025017 8 340 1.6 1.6 0.00 0.51 0.51 77 1116.1
20260905024017 13 0.0 3.2 0.20 0.23 0.23 85 1018.4
20260905023017 10 336 1.6 1.6 0.00 0.51 0.51 76 1115.3
20260905022017 10 334 1.6 1.6 0.00 0.51 0.51 76 1114.9
20260905021017 11 332 1.6 1.6 0.00 0.51 0.51 75 1114.5
20260905020017 11 330 1.6 1.6 0.00 0.51 0.51 75 1114.1
20260905015017 11 328 1.6 1.6 0.03 0.51 0.51 75 1113.7
20260905014017 12 326 1.6 1.6 0.05 0.51 0.51 74 1113.2
20260905013017 12 323 1.6 1.6 0.08 0.51 0.51 74 1112.7
20260905012017 13 321 1.6 1.6 0.10 0.51 0.51 73 1112.3
20260905011017 13 318 1.6 1.6 0.13 0.51 0.51 73 1111.8
20260905010037 13 316 1.6 1.6 0.15 0.51 0.51 73 1111.3
20260905005037 14 313 1.6 3.2 0.15 0.51 0.48 72 1110.8
20260905004017 15 311 1.6 3.2 0.15 0.51 0.46 72 1110.2
20260905003017 15 308 1.6 3.2 0.18 0.51 0.43 71 1109.7
20260905002016 16 305 3.2 3.2 0.18 0.51 0.41 71 1109.1
20260905001017 16 302 3.2 3.2 0.18 0.51 0.38 70 1108.6
20260905000017 16 299 3.2 3.2 0.18 0.51 0.36 70 1108.0
20260904235037 17 296 3.2 3.2 0.18 0.51 0.33 69 1107.4
20260904234017 17 293 3.2 3.2 0.18 0.51 0.30 69 1106.8
20260904233017 17 290 3.2 3.2 0.15 0.51 0.25 68 1106.2
20260904232017 18 287 3.2 3.2 0.15 0.51 0.23 68 1105.6
20260904231037 18 284 3.2 4.8 0.15 0.51 0.20 67 1105.0
20260904230017 18 281 3.2 4.8 0.18 0.51 0.18 67 1104.3
20260904225017 18 277 3.2 4.8 0.15 0.51 0.15 66 1103.7
20260904224017 19 274 3.2 4.8 0.13 0.51 0.13 66 1103.0
20260904223017 19 271 3.2 4.8 0.10 0.51 0.10 65 1102.3
20260904222017 20 267 4.8 4.8 0.08 0.51 0.08 65 1101.7
20260904221017 20 264 4.8 4.8 0.05 0.51 0.05 64 1101.0
20260904220017 20 260 4.8 4.8 0.00 0.51 0.00 63 1100.3
20260904215017 20 257 4.8 4.8 0.00 0.51 0.51 63 1099.6
20260904214017 20 253 4.8 6.4 0.00 0.51 0.51 62 1098.9
20260904213017 20 250 4.8 6.4 0.00 0.51 0.51 62 1098.2
20260904212017 20 246 4.8 6.4 0.00 0.51 0.51 61 1097.5
20260904211017 22 225 3.2 6.4 0.00 0.00 0.00 65 1013.6
20260904210017 22 248 4.8 11.3 0.00 0.00 0.00 65 1013.5
20260904205017 21 235 4.8 6.4 0.00 0.51 0.51 59 1095.3
20260904204037 22 203 6.4 14.5 0.00 0.00 0.00 65 1013.3
20260904203017 21 227 6.4 6.4 0.00 0.51 0.51 58 1093.8
20260904202017 21 224 6.4 8.0 0.00 0.51 0.51 57 1093.0
20260904201017 21 220 6.4 8.0 0.00 0.51 0.51 57 1092.3
20260904200017 22 225 8.0 19.3 0.00 0.00 0.00 66 1013.1
20260904195038 22 180 4.8 8.0 0.00 0.00 0.00 65 1013.1